To NAV CANADA Home Page Login to a new session Search on AWWS site Feedback and Comments Disclaimer Vers la page française équivalente Tips FAQ What's new on the site To the Forecasts and Observations / NOTAM section To "File a Flight Plan" website Publications and other links Update of the User's profile FIC Telephone Numbers My Weather Data Folder Route Weather Data Regional Weather Data Local Weather Data To the Forecasts and Observations / NOTAM section
Request Generated 08/22/2017 at 03:27:56 UTC . Weather information available at that time is displayed.

METAR/TAF

QUAQTAQ/QC    

LWIS CYHA 220300Z AUTO 29009KT 05/04 A2982=
LWIS CYHA 220200Z AUTO 29007KT 05/04 A2982=
LWIS CYHA 220100Z AUTO 32003KT 04/03 A2983=

*** REMARK        : Forecast period has ended; this was the last TAF issued
*** REMARQUE : La période de prévision est échue; ceci était le dernier TAF qui a été émis
TAF CYHA 211338Z 2114/2121 31012KT P6SM SCT240
RMK NXT FCST WILL BE ISSUED AT 221345Z=
Your time UTC time
Weather data provided by Environment Canada and NAV CANADA